CW8998 Weather Reports


Display with metric or nautical units.
time (UTC)temp
F
wind
direction
speed
MPH
gust
MPH
rain 1hr
in
rain 24hr
in
rain mn
in
humidity
%
barometer
mb
20260902051548 68 0 0.0 3.0 0.00 0.00 0.00 80 1013.9
20260902051029 68 0 0.0 3.0 0.00 0.00 0.00 80 1013.9
20260902050529 68 315 1.0 3.0 0.00 0.00 0.00 79 1014.1
20260902050047 68 21 1.0 2.0 0.00 0.00 0.00 79 1013.9
20260902045529 69 0 0.0 1.0 0.00 0.00 0.00 79 1014.1
20260902045029 69 0 0.0 3.0 0.00 0.00 0.00 78 1014.1
20260902044544 69 0 0.0 3.0 0.00 0.00 0.00 77 1014.3
20260902044030 70 5 2.0 3.0 0.00 0.00 0.00 76 1014.2
20260902043528 70 5 0.0 2.0 0.00 0.00 0.00 75 1014.3
20260902043042 70 0 0.0 1.0 0.00 0.00 0.00 74 1014.5
20260902042528 70 0 0.0 1.0 0.00 0.00 0.00 73 1014.3
20260902042030 71 0 0.0 1.0 0.00 0.00 0.00 73 1014.3
20260902041551 71 5 0.0 1.0 0.00 0.00 0.00 71 1014.4
20260902041026 71 0 0.0 2.0 0.00 0.00 0.00 69 1014.1
20260902040529 71 0 0.0 2.0 0.00 0.00 0.00 69 1014.0
20260902040044 71 0 0.0 2.0 0.00 0.00 0.00 69 1013.9
20260902035525 71 5 0.0 2.0 0.00 0.00 0.00 70 1014.1
20260902035026 71 0 0.0 2.0 0.00 0.00 0.00 70 1014.1
20260902034545 71 0 0.0 2.0 0.00 0.00 0.00 71 1014.3
20260902034028 71 0 0.0 2.0 0.00 0.00 0.00 69 1014.4
20260902033529 71 5 0.0 2.0 0.00 0.00 0.00 68 1014.3
20260902033044 71 306 0.0 1.0 0.00 0.00 0.00 69 1014.2
20260902032529 71 0 0.0 1.0 0.00 0.00 0.00 69 1014.2
20260902032032 71 0 0.0 0.0 0.00 0.00 0.00 69 1014.4
20260902031550 71 0 0.0 0.0 0.00 0.00 0.00 69 1014.4
20260902031028 71 0 0.0 0.0 0.00 0.00 0.00 69 1014.4
20260902030529 72 0 0.0 0.0 0.00 0.00 0.00 69 1014.3
20260902030045 72 0 0.0 0.0 0.00 0.00 0.00 69 1014.4
20260902025530 72 0 0.0 0.0 0.00 0.00 0.00 69 1014.3
20260902025029 72 0 0.0 0.0 0.00 0.00 0.00 68 1014.3
20260902024547 72 0 0.0 1.0 0.00 0.00 0.00 68 1014.3
20260902024028 72 0 0.0 1.0 0.00 0.00 0.00 68 1014.3
20260902023529 72 0 0.0 1.0 0.00 0.00 0.00 68 1014.3
20260902023043 72 0 0.0 2.0 0.00 0.00 0.00 68 1014.3
20260902022529 73 0 0.0 2.0 0.00 0.00 0.00 66 1014.2
20260902022028 73 0 0.0 2.0 0.00 0.00 0.00 65 1014.2
20260902021549 73 290 0.0 2.0 0.00 0.00 0.00 62 1014.0
20260902021028 73 0 0.0 2.0 0.00 0.00 0.00 62 1013.8
20260902020526 74 0 0.0 2.0 0.00 0.00 0.00 62 1013.6
20260902020046 74 0 0.0 2.0 0.00 0.00 0.00 62 1013.5
20260902015530 74 0 0.0 1.0 0.00 0.00 0.00 61 1013.6
20260902015028 74 0 0.0 1.0 0.00 0.00 0.00 61 1013.8
20260902014548 74 0 0.0 2.0 0.00 0.00 0.00 61 1013.6
20260902014028 74 0 0.0 2.0 0.00 0.00 0.00 61 1013.6
20260902013529 75 0 0.0 2.0 0.00 0.00 0.00 62 1013.6
20260902013043 75 0 0.0 2.0 0.00 0.00 0.00 62 1013.7
20260902012529 75 0 0.0 2.0 0.00 0.00 0.00 62 1013.6
20260902012032 75 0 0.0 2.0 0.00 0.00 0.00 61 1013.7
20260902011549 75 0 0.0 1.0 0.00 0.00 0.00 62 1013.6
20260902011028 75 0 0.0 1.0 0.00 0.00 0.00 61 1013.5
20260902010529 75 0 0.0 1.0 0.00 0.00 0.00 61 1013.4
20260902010112 75 0 0.0 1.0 0.00 0.00 0.00 62 1013.4
20260902005526 75 0 0.0 2.0 0.00 0.00 0.00 62 1013.5
20260902005026 76 0 0.0 2.0 0.00 0.00 0.00 63 1013.5
20260902004546 76 207 0.0 1.0 0.00 0.00 0.00 61 1013.5
20260902004028 76 0 0.0 1.0 0.00 0.00 0.00 62 1013.5
20260902003529 77 0 0.0 1.0 0.00 0.00 0.00 60 1013.5
20260902003045 77 0 0.0 1.0 0.00 0.00 0.00 59 1013.4
20260902002528 77 0 0.0 2.0 0.00 0.00 0.00 58 1013.5
20260902002029 77 0 0.0 3.0 0.00 0.00 0.00 56 1013.3
20260902001542 78 0 0.0 3.0 0.00 0.00 0.00 56 1013.1
20260902001029 78 0 1.0 2.0 0.00 0.00 0.00 55 1013.2
20260902000529 78 0 0.0 4.0 0.00 0.00 0.00 55 1013.3
20260902000055 79 167 0.0 4.0 0.00 0.00 0.00 55 1013.6
20260901235527 79 168 1.0 4.0 0.00 0.00 0.00 58 1013.8
20260901235026 79 0 0.0 3.0 0.00 0.00 0.00 55 1013.8
20260901234548 79 0 1.0 3.0 0.00 0.00 0.00 53 1013.8
20260901234028 80 227 0.0 4.0 0.00 0.00 0.00 51 1013.9
20260901233529 80 0 0.0 4.0 0.00 0.00 0.00 52 1013.9
20260901233056 80 290 0.0 3.0 0.00 0.00 0.00 51 1013.8
20260901232528 80 0 0.0 3.0 0.00 0.00 0.00 52 1013.9
20260901232032 80 0 1.0 3.0 0.00 0.00 0.00 53 1014.2
20260901231552 81 263 1.0 3.0 0.00 0.00 0.00 54 1014.2
20260901231028 81 273 1.0 4.0 0.00 0.00 0.00 52 1014.2
20260901230529 81 260 1.0 4.0 0.00 0.00 0.00 51 1014.0
20260901230042 81 273 1.0 3.0 0.00 0.00 0.00 50 1014.0
20260901225530 81 0 0.0 3.0 0.00 0.00 0.00 50 1013.8
20260901225028 82 12 0.0 3.0 0.00 0.00 0.00 49 1013.8
20260901224551 82 0 1.0 3.0 0.00 0.00 0.00 48 1013.9
20260901224029 82 0 0.0 3.0 0.00 0.00 0.00 48 1014.0
20260901223528 82 289 0.0 3.0 0.00 0.00 0.00 47 1014.1
20260901223051 83 293 1.0 5.0 0.00 0.00 0.00 45 1014.1
20260901222528 83 0 1.0 5.0 0.00 0.00 0.00 45 1014.3
20260901222028 83 0 0.0 4.0 0.00 0.00 0.00 45 1014.1
20260901221545 83 244 1.0 4.0 0.00 0.00 0.00 44 1014.1
20260901221028 83 290 1.0 6.0 0.00 0.00 0.00 43 1013.9
20260901220533 83 275 1.0 6.0 0.00 0.00 0.00 43 1013.9
20260901220043 83 210 2.0 4.0 0.00 0.00 0.00 44 1013.8
20260901215529 84 293 1.0 6.0 0.00 0.00 0.00 43 1013.9
20260901215031 83 0 1.0 6.0 0.00 0.00 0.00 45 1013.8
20260901214543 82 279 3.0 7.0 0.00 0.00 0.00 45 1013.9
20260901214028 82 286 2.0 8.0 0.00 0.00 0.00 45 1014.0
20260901213528 82 288 4.0 8.0 0.00 0.00 0.00 44 1014.0
20260901213048 83 271 3.0 7.0 0.00 0.00 0.00 43 1013.9
20260901212529 83 0 1.0 5.0 0.00 0.00 0.00 45 1013.8
20260901212029 83 0 1.0 5.0 0.00 0.00 0.00 44 1013.9
20260901211547 83 300 2.0 4.0 0.00 0.00 0.00 43 1013.9
20260901211028 83 277 1.0 4.0 0.00 0.00 0.00 45 1013.9
20260901210527 82 314 1.0 8.0 0.00 0.00 0.00 44 1013.8
20260901210043 82 265 2.0 8.0 0.00 0.00 0.00 42 1013.9
20260901205529 82 294 4.0 7.0 0.00 0.00 0.00 42 1013.9
20260901205031 83 220 2.0 6.0 0.00 0.00 0.00 43 1014.0
20260901204548 83 274 2.0 6.0 0.00 0.00 0.00 41 1013.9
20260901204028 83 230 1.0 6.0 0.00 0.00 0.00 43 1013.9
20260901203528 83 235 3.0 6.0 0.00 0.00 0.00 43 1013.7
20260901203047 83 198 1.0 6.0 0.00 0.00 0.00 42 1013.8
20260901202529 83 224 1.0 6.0 0.00 0.00 0.00 42 1013.9
20260901202030 83 253 1.0 5.0 0.00 0.00 0.00 45 1014.0
20260901201546 83 198 1.0 5.0 0.00 0.00 0.00 45 1014.1
20260901201029 84 261 1.0 5.0 0.00 0.00 0.00 44 1014.1
20260901200529 84 246 1.0 6.0 0.00 0.00 0.00 44 1014.1
20260901200101 83 275 2.0 6.0 0.00 0.00 0.00 45 1014.1
20260901195529 82 174 1.0 6.0 0.00 0.00 0.00 45 1014.1
20260901195029 83 234 1.0 6.0 0.00 0.00 0.00 45 1014.1
20260901194555 82 171 1.0 8.0 0.00 0.00 0.00 47 1014.0
20260901194028 82 286 2.0 8.0 0.00 0.00 0.00 45 1014.2
20260901193530 82 279 2.0 8.0 0.00 0.00 0.00 46 1014.2
20260901193101 82 252 1.0 4.0 0.00 0.00 0.00 45 1014.3
20260901192528 82 254 1.0 6.0 0.00 0.00 0.00 47 1014.3
20260901192027 82 0 1.0 6.0 0.00 0.00 0.00 45 1014.5
20260901191547 81 355 2.0 6.0 0.00 0.00 0.00 45 1014.4
20260901191036 82 223 2.0 6.0 0.00 0.00 0.00 45 1014.4
20260901190528 82 261 0.0 4.0 0.00 0.00 0.00 44 1014.4
20260901190047 82 138 1.0 4.0 0.00 0.00 0.00 46 1014.5
20260901185526 83 234 0.0 3.0 0.00 0.00 0.00 45 1014.4
20260901185028 83 300 0.0 3.0 0.00 0.00 0.00 45 1014.4
20260901184553 81 332 0.0 4.0 0.00 0.00 0.00 47 1014.4
20260901184029 81 277 2.0 4.0 0.00 0.00 0.00 46 1014.4
20260901183528 82 247 1.0 4.0 0.00 0.00 0.00 46 1014.5
20260901183049 82 0 1.0 4.0 0.00 0.00 0.00 45 1014.7
20260901182526 82 209 0.0 5.0 0.00 0.00 0.00 46 1014.8
20260901182029 81 244 0.0 5.0 0.00 0.00 0.00 49 1014.9
20260901181556 81 219 1.0 3.0 0.00 0.00 0.00 48 1014.9
20260901181029 81 340 0.0 2.0 0.00 0.00 0.00 49 1014.9
20260901180527 81 67 1.0 3.0 0.00 0.00 0.00 49 1014.9
20260901180052 81 0 1.0 4.0 0.00 0.00 0.00 49 1015.0
20260901175529 81 355 1.0 4.0 0.00 0.00 0.00 50 1015.1
20260901175029 81 304 1.0 5.0 0.00 0.00 0.00 49 1015.0
20260901174602 80 38 1.0 5.0 0.00 0.00 0.00 49 1015.1
20260901174031 81 360 2.0 5.0 0.00 0.00 0.00 48 1015.2
20260901173528 80 11 0.0 3.0 0.00 0.00 0.00 49 1015.2
20260901173044 80 5 0.0 3.0 0.00 0.00 0.00 50 1015.3
20260901172529 80 298 1.0 4.0 0.00 0.00 0.00 49 1015.2
20260901172028 80 0 1.0 5.0 0.00 0.00 0.00 49 1015.2
20260901171553 80 49 1.0 5.0 0.00 0.00 0.00 49 1015.2
20260901171029 79 355 1.0 4.0 0.00 0.00 0.00 53 1015.2
20260901170529 79 294 1.0 4.0 0.00 0.00 0.00 53 1015.3
20260901170154 79 28 0.0 4.0 0.00 0.00 0.00 54 1015.2
20260901165528 79 32 1.0 4.0 0.00 0.00 0.00 54 1015.2
20260901165029 78 42 2.0 4.0 0.00 0.00 0.00 54 1015.2
20260901164547 78 346 1.0 3.0 0.00 0.00 0.00 54 1015.1
20260901164029 77 5 1.0 4.0 0.00 0.00 0.00 53 1015.2
20260901163528 77 288 1.0 4.0 0.00 0.00 0.00 53 1015.3
20260901163043 76 0 0.0 4.0 0.00 0.00 0.00 55 1015.4
20260901162528 76 0 0.0 4.0 0.00 0.00 0.00 54 1015.5
20260901162029 76 57 1.0 3.0 0.00 0.00 0.00 55 1015.5
20260901161609 76 52 1.0 3.0 0.00 0.00 0.00 55 1015.6
20260901161029 76 322 1.0 4.0 0.00 0.00 0.00 57 1015.5
20260901160528 76 0 0.0 4.0 0.00 0.00 0.00 57 1015.4
20260901160054 75 48 1.0 3.0 0.00 0.00 0.00 57 1015.5
20260901155529 76 46 0.0 1.0 0.00 0.00 0.00 58 1015.5
20260901155028 75 0 0.0 3.0 0.00 0.00 0.00 58 1015.6
20260901154554 74 0 0.0 3.0 0.00 0.00 0.00 59 1015.5
20260901154028 74 58 0.0 3.0 0.00 0.00 0.00 59 1015.5
20260901153531 74 0 1.0 2.0 0.00 0.00 0.00 59 1015.4
20260901153100 74 61 0.0 2.0 0.00 0.00 0.00 58 1015.4
20260901152527 74 288 0.0 2.0 0.00 0.00 0.00 59 1015.3
20260901152028 74 0 0.0 4.0 0.00 0.00 0.00 58 1015.4
20260901151543 74 60 1.0 4.0 0.00 0.00 0.00 59 1015.4
20260901151029 74 55 1.0 3.0 0.00 0.00 0.00 59 1015.3
20260901150527 74 0 0.0 3.0 0.00 0.00 0.00 60 1015.3
20260901150054 73 0 1.0 3.0 0.00 0.00 0.00 63 1015.4
20260901145528 73 0 0.0 2.0 0.00 0.00 0.00 61 1015.5
20260901145028 73 0 1.0 2.0 0.00 0.00 0.00 62 1015.5
20260901144548 73 280 0.0 2.0 0.00 0.00 0.00 61 1015.4
20260901144028 72 321 0.0 2.0 0.00 0.00 0.00 62 1015.4
20260901143530 72 0 0.0 2.0 0.00 0.00 0.00 64 1015.4
20260901143048 71 0 0.0 2.0 0.00 0.00 0.00 65 1015.5
20260901142528 71 0 0.0 2.0 0.00 0.00 0.00 66 1015.4
20260901142026 71 36 0.0 2.0 0.00 0.00 0.00 65 1015.4
20260901141547 71 0 0.0 3.0 0.00 0.00 0.00 66 1015.5
20260901141030 69 296 0.0 3.0 0.00 0.00 0.00 69 1015.5
20260901140529 69 294 0.0 3.0 0.00 0.00 0.00 67 1015.6
20260901140058 69 0 0.0 4.0 0.00 0.00 0.00 69 1015.7
20260901135529 68 0 1.0 4.0 0.00 0.00 0.00 70 1015.6
20260901135033 68 255 1.0 3.0 0.00 0.00 0.00 71 1015.7
20260901134550 68 327 0.0 3.0 0.00 0.00 0.00 72 1015.5
20260901134029 67 270 1.0 6.0 0.00 0.00 0.00 73 1015.5
20260901133529 66 303 0.0 6.0 0.00 0.00 0.00 73 1015.5
20260901133050 66 241 0.0 6.0 0.00 0.00 0.00 74 1015.7
20260901132529 66 0 0.0 7.0 0.00 0.00 0.00 75 1015.7
20260901132030 66 0 0.0 7.0 0.00 0.00 0.00 75 1015.5
20260901131545 66 294 1.0 7.0 0.00 0.00 0.00 75 1015.3
20260901131030 65 0 1.0 4.0 0.00 0.00 0.00 75 1015.3
20260901130525 65 301 0.0 2.0 0.00 0.00 0.00 76 1015.1
20260901130100 65 301 0.0 1.0 0.00 0.00 0.00 77 1015.1
20260901125528 64 0 0.0 3.0 0.00 0.00 0.00 77 1015.0
20260901125027 64 0 0.0 3.0 0.00 0.00 0.00 76 1014.9
20260901124545 64 0 0.0 3.0 0.00 0.00 0.00 76 1014.8
20260901124028 64 313 0.0 2.0 0.00 0.00 0.00 77 1014.8
20260901123528 64 0 0.0 1.0 0.00 0.00 0.00 77 1014.9
20260901123044 64 0 0.0 1.0 0.00 0.00 0.00 77 1014.8
20260901122529 63 0 0.0 1.0 0.00 0.00 0.00 77 1014.8
20260901122025 63 0 0.0 1.0 0.00 0.00 0.00 77 1014.7
20260901121549 63 0 0.0 1.0 0.00 0.00 0.00 77 1014.7
20260901121028 64 0 0.0 2.0 0.00 0.00 0.00 77 1014.6
20260901120525 64 0 0.0 3.0 0.00 0.00 0.00 77 1014.6
20260901120045 63 0 0.0 3.0 0.00 0.00 0.00 78 1014.4
20260901115528 63 264 1.0 3.0 0.00 0.00 0.00 78 1014.4
20260901115024 63 0 0.0 3.0 0.00 0.00 0.00 79 1014.4
20260901114544 64 0 1.0 4.0 0.00 0.00 0.00 79 1014.3
20260901114025 64 179 1.0 4.0 0.00 0.00 0.00 77 1014.2
20260901113525 64 162 0.0 2.0 0.00 0.00 0.00 75 1014.1
20260901113042 65 0 0.0 2.0 0.00 0.00 0.00 75 1014.0
20260901112527 65 243 0.0 2.0 0.00 0.00 0.00 75 1014.0
20260901112028 65 0 0.0 2.0 0.00 0.00 0.00 75 1014.0
20260901111554 65 0 0.0 3.0 0.00 0.00 0.00 75 1013.9
20260901111028 65 0 0.0 3.0 0.00 0.00 0.00 75 1013.9
20260901110526 65 0 0.0 3.0 0.00 0.00 0.00 75 1013.9
20260901110047 65 0 0.0 2.0 0.00 0.00 0.00 75 1013.8
20260901105526 65 0 0.0 4.0 0.00 0.00 0.00 76 1013.6
20260901105028 64 305 1.0 4.0 0.00 0.00 0.00 77 1013.7
20260901104545 64 285 0.0 2.0 0.00 0.00 0.00 78 1013.8
20260901104025 64 0 0.0 2.0 0.00 0.00 0.00 79 1013.9
20260901103525 64 0 0.0 2.0 0.00 0.00 0.00 79 1013.9
20260901103044 65 0 0.0 2.0 0.00 0.00 0.00 80 1013.9
20260901102524 65 180 1.0 3.0 0.00 0.00 0.00 79 1013.9
20260901102025 65 0 0.0 3.0 0.00 0.00 0.00 78 1013.8
20260901101545 65 197 1.0 3.0 0.00 0.00 0.00 77 1013.9
20260901101028 65 226 0.0 4.0 0.00 0.00 0.00 77 1013.8
20260901100526 65 281 1.0 4.0 0.00 0.00 0.00 77 1013.8
20260901100049 65 0 0.0 3.0 0.00 0.00 0.00 78 1013.8
20260901095530 65 0 0.0 3.0 0.00 0.00 0.00 78 1013.7
20260901095029 65 219 0.0 3.0 0.00 0.00 0.00 78 1013.8
20260901094544 66 0 0.0 4.0 0.00 0.00 0.00 78 1013.8
20260901094028 66 0 1.0 4.0 0.00 0.00 0.00 77 1013.6
20260901093529 66 243 1.0 4.0 0.00 0.00 0.00 77 1013.5
20260901093042 65 286 2.0 4.0 0.00 0.00 0.00 78 1013.4
20260901092528 65 277 2.0 4.0 0.00 0.00 0.00 79 1013.4
20260901092028 65 261 2.0 4.0 0.00 0.00 0.00 79 1013.3
20260901091547 65 288 1.0 3.0 0.00 0.00 0.00 80 1013.3
20260901091028 65 0 0.0 3.0 0.00 0.00 0.00 80 1013.4
20260901090532 65 0 0.0 3.0 0.00 0.00 0.00 79 1013.5
20260901090045 65 190 0.0 3.0 0.00 0.00 0.00 79 1013.4
20260901085527 65 0 0.0 4.0 0.00 0.00 0.00 79 1013.5
20260901085029 65 178 1.0 4.0 0.00 0.00 0.00 78 1013.6
20260901084600 65 183 1.0 4.0 0.00 0.00 0.00 78 1013.6
20260901084029 65 175 1.0 4.0 0.00 0.00 0.00 77 1013.5
20260901083528 66 159 0.0 1.0 0.00 0.00 0.00 76 1013.4
20260901083048 66 0 0.0 2.0 0.00 0.00 0.00 76 1013.5
20260901082528 66 159 0.0 2.0 0.00 0.00 0.00 76 1013.4
20260901082027 66 215 0.0 2.0 0.00 0.00 0.00 76 1013.5
20260901081548 66 0 0.0 2.0 0.00 0.00 0.00 76 1013.4
20260901081029 66 156 0.0 2.0 0.00 0.00 0.00 75 1013.3
20260901080529 66 0 0.0 1.0 0.00 0.00 0.00 74 1013.3
20260901080043 66 0 0.0 3.0 0.00 0.00 0.00 74 1013.3
20260901075526 67 0 0.0 3.0 0.00 0.00 0.00 73 1013.4
20260901075029 67 0 1.0 4.0 0.00 0.00 0.00 72 1013.4
20260901074543 67 246 1.0 5.0 0.00 0.00 0.00 73 1013.4
20260901074028 67 142 1.0 6.0 0.00 0.00 0.00 73 1013.3
20260901073529 67 167 2.0 6.0 0.00 0.00 0.00 73 1013.4
20260901073042 67 184 1.0 5.0 0.00 0.00 0.00 72 1013.3
20260901072527 67 159 1.0 4.0 0.00 0.00 0.00 72 1013.3
20260901072029 67 182 1.0 4.0 0.00 0.00 0.00 72 1013.4
20260901071546 67 162 1.0 4.0 0.00 0.00 0.00 73 1013.5
20260901071027 67 157 2.0 4.0 0.00 0.00 0.00 73 1013.6
20260901070528 67 166 1.0 4.0 0.00 0.00 0.00 72 1013.6
20260901070044 67 188 0.0 2.0 0.00 0.00 0.00 73 1013.6
20260901065528 67 182 0.0 3.0 0.00 0.00 0.00 73 1013.7
20260901065028 67 0 0.0 4.0 0.00 0.00 0.00 74 1013.6
20260901064542 67 177 1.0 4.0 0.00 0.00 0.00 73 1013.6
20260901064028 67 169 1.0 4.0 0.00 0.00 0.00 74 1013.8
20260901063528 67 170 1.0 4.0 0.00 0.00 0.00 73 1013.9
20260901063053 67 161 1.0 4.0 0.00 0.00 0.00 73 1014.0
20260901062526 67 0 1.0 3.0 0.00 0.00 0.00 73 1014.0
20260901062025 67 183 1.0 3.0 0.00 0.00 0.00 74 1014.1
20260901061552 67 181 0.0 5.0 0.00 0.00 0.00 75 1014.1
20260901061028 67 175 0.0 5.0 0.00 0.00 0.00 76 1014.1
20260901060530 66 165 2.0 5.0 0.00 0.00 0.00 77 1014.0
20260901060049 66 175 1.0 4.0 0.00 0.00 0.00 79 1014.0
20260901055528 66 0 1.0 4.0 0.00 0.00 0.00 79 1014.1
20260901055026 67 0 0.0 2.0 0.00 0.00 0.00 77 1014.1
20260901054544 67 0 0.0 1.0 0.00 0.00 0.00 77 1014.0
20260901054028 67 165 0.0 2.0 0.00 0.00 0.00 76 1014.0
20260901053528 67 0 0.0 2.0 0.00 0.00 0.00 74 1014.1
20260901053103 68 0 0.0 2.0 0.00 0.00 0.00 75 1014.0
20260901052527 67 0 0.0 1.0 0.00 0.00 0.00 75 1014.1
20260901052027 67 0 0.0 1.0 0.00 0.00 0.00 75 1014.1